• In Deutschland
  • Länderverzeichnis
  • Für 7 Tage
  • Wassertemperatur
  • Satellitenkarten
  • Wetterkarte
  • Widgets
  • user-avatar
    Anmelden

    Stündliche Wetter Fröndenberg

    Heute, 18 Februar, Sonntag

    Zeit Temperatur Niederschläge Wind Luftdruck Luftfeuchtigkeit
    00:00 0°C° 0 mm 1 m/S 757 mmHg 85%
    01:00 0°C° 0 mm 1 m/S 757 mmHg 86%
    02:00 0°C° 0 mm 1 m/S 757 mmHg 85%
    03:00 0°C° 0 mm 1 m/S 758 mmHg 84%
    04:00 0°C° 0 mm 1 m/S 758 mmHg 83%
    05:00 0°C° 0 mm 1 m/S 758 mmHg 82%
    06:00 0°C° 0 mm 1 m/S 758 mmHg 81%
    07:00 0°C° 0 mm 1 m/S 758 mmHg 80%
    08:00 -1°C° 0 mm 2 m/S 758 mmHg 76%
    09:00 +1°C° 0 mm 2 m/S 758 mmHg 71%
    10:00 +2°C° 0 mm 2 m/S 758 mmHg 66%
    11:00 +3°C° 0 mm 2 m/S 758 mmHg 61%
    12:00 +4°C° 0 mm 2 m/S 758 mmHg 57%
    13:00 +6°C° 0 mm 2 m/S 758 mmHg 52%
    14:00 +6°C° 0 mm 2 m/S 757 mmHg 54%
    15:00 +6°C° 0 mm 2 m/S 757 mmHg 55%
    16:00 +6°C° 0 mm 2 m/S 757 mmHg 56%
    17:00 +4°C° 0 mm 2 m/S 757 mmHg 62%
    18:00 +3°C° 0 mm 2 m/S 757 mmHg 68%
    19:00 +2°C° 0 mm 2 m/S 757 mmHg 74%
    20:00 +1°C° 0 mm 2 m/S 757 mmHg 75%
    21:00 +1°C° 0 mm 2 m/S 757 mmHg 76%
    22:00 -1°C° 0 mm 2 m/S 757 mmHg 78%
    23:00 -1°C° 0 mm 2 m/S 756 mmHg 78%

    Morgen, 19 Februar, Montag

    Zeit Temperatur Niederschläge Wind Luftdruck Luftfeuchtigkeit
    00:00 -1°C° 0 mm 2 m/S 756 mmHg 79%
    01:00 -1°C° 0 mm 2 m/S 756 mmHg 79%
    02:00 -1°C° 0 mm 2 m/S 756 mmHg 79%
    03:00 0°C° 0 mm 1 m/S 755 mmHg 79%
    04:00 0°C° 0 mm 1 m/S 755 mmHg 79%
    05:00 0°C° 0 mm 1 m/S 755 mmHg 79%
    06:00 0°C° 0 mm 1 m/S 755 mmHg 79%
    07:00 +1°C° 0 mm 1 m/S 755 mmHg 79%
    08:00 +1°C° 0 mm 1 m/S 755 mmHg 75%
    09:00 +2°C° 0 mm 1 m/S 755 mmHg 71%
    10:00 +3°C° 0 mm 1 m/S 755 mmHg 67%
    11:00 +5°C° 0 mm 1 m/S 754 mmHg 62%
    12:00 +6°C° 0 mm 1 m/S 754 mmHg 57%
    13:00 +7°C° 0 mm 1 m/S 754 mmHg 52%
    14:00 +7°C° 0 mm 1 m/S 753 mmHg 52%
    15:00 +7°C° 0 mm 1 m/S 753 mmHg 53%
    16:00 +7°C° 0 mm 1 m/S 753 mmHg 53%
    17:00 +5°C° 0 mm 0 m/S 752 mmHg 57%
    18:00 +3°C° 0 mm 0 m/S 752 mmHg 62%
    19:00 +2°C° 0 mm 0 m/S 752 mmHg 66%
    20:00 +2°C° 0 mm 0 m/S 752 mmHg 67%
    21:00 +3°C° 0 mm 1 m/S 752 mmHg 67%
    22:00 +3°C° 0 mm 1 m/S 752 mmHg 68%
    23:00 +3°C° 0 mm 1 m/S 752 mmHg 69%

    übermorgen, 20 Februar, Dienstag

    Zeit Temperatur Niederschläge Wind Luftdruck Luftfeuchtigkeit
    00:00 +3°C° 0 mm 1 m/S 751 mmHg 70%
    01:00 +2°C° 0 mm 1 m/S 751 mmHg 71%
    02:00 +2°C° 0 mm 1 m/S 751 mmHg 71%
    03:00 +2°C° 0 mm 1 m/S 751 mmHg 72%
    04:00 +2°C° 0 mm 1 m/S 750 mmHg 73%
    05:00 +2°C° 0,1 mm 1 m/S 750 mmHg 73%
    06:00 +2°C° 0,1 mm 1 m/S 750 mmHg 74%
    07:00 +2°C° 0,1 mm 1 m/S 750 mmHg 74%
    08:00 +2°C° 0,2 mm 1 m/S 750 mmHg 74%
    09:00 +3°C° 0,2 mm 1 m/S 751 mmHg 74%
    10:00 +3°C° 0,2 mm 1 m/S 751 mmHg 73%
    11:00 +4°C° 0,1 mm 1 m/S 751 mmHg 72%
    12:00 +4°C° 0,1 mm 1 m/S 751 mmHg 72%
    13:00 +4°C° 0,1 mm 0 m/S 751 mmHg 71%
    14:00 +5°C° 0 mm 1 m/S 751 mmHg 72%
    15:00 +5°C° 0 mm 1 m/S 751 mmHg 73%
    16:00 +4°C° 0 mm 2 m/S 751 mmHg 74%
    17:00 +3°C° 0 mm 2 m/S 752 mmHg 78%
    18:00 +3°C° 0 mm 2 m/S 752 mmHg 81%
    19:00 +2°C° 0 mm 2 m/S 752 mmHg 84%
    20:00 +1°C° 0 mm 2 m/S 753 mmHg 84%
    21:00 +1°C° 0 mm 2 m/S 753 mmHg 84%
    22:00 -1°C° 0 mm 2 m/S 754 mmHg 84%
    23:00 -1°C° 0 mm 2 m/S 754 mmHg 84%

    21 Februar, Mittwoch

    Zeit Temperatur Niederschläge Wind Luftdruck Luftfeuchtigkeit
    00:00 -2°C° 0 mm 2 m/S 754 mmHg 84%
    01:00 0°C° 0 mm 1 m/S 755 mmHg 84%
    02:00 0°C° 0 mm 1 m/S 755 mmHg 84%
    03:00 0°C° 0 mm 1 m/S 755 mmHg 85%
    04:00 -2°C° 0 mm 2 m/S 755 mmHg 85%
    05:00 -3°C° 0 mm 2 m/S 755 mmHg 85%
    06:00 -3°C° 0 mm 2 m/S 755 mmHg 85%
    07:00 -3°C° 0 mm 2 m/S 755 mmHg 85%
    08:00 -2°C° 0 mm 2 m/S 755 mmHg 80%
    09:00 -1°C° 0 mm 2 m/S 755 mmHg 74%
    10:00 +1°C° 0 mm 2 m/S 756 mmHg 69%
    11:00 +2°C° 0 mm 2 m/S 755 mmHg 65%
    12:00 +2°C° 0 mm 3 m/S 755 mmHg 61%
    13:00 +3°C° 0 mm 3 m/S 755 mmHg 57%
    14:00 +3°C° 0 mm 3 m/S 754 mmHg 58%
    15:00 +2°C° 0 mm 3 m/S 754 mmHg 59%
    16:00 +2°C° 0 mm 3 m/S 754 mmHg 60%
    17:00 +1°C° 0 mm 3 m/S 754 mmHg 67%
    18:00 0°C° 0 mm 3 m/S 754 mmHg 74%
    19:00 -1°C° 0 mm 3 m/S 754 mmHg 80%
    20:00 -1°C° 0 mm 2 m/S 754 mmHg 82%
    21:00 -2°C° 0 mm 2 m/S 754 mmHg 83%
    22:00 -2°C° 0 mm 2 m/S 755 mmHg 85%
    23:00 -2°C° 0 mm 2 m/S 754 mmHg 85%

    22 Februar, Donnerstag

    Zeit Temperatur Niederschläge Wind Luftdruck Luftfeuchtigkeit
    00:00 -3°C° 0 mm 2 m/S 754 mmHg 84%
    01:00 -3°C° 0 mm 2 m/S 754 mmHg 84%
    02:00 -3°C° 0 mm 2 m/S 754 mmHg 83%
    03:00 -3°C° 0 mm 2 m/S 754 mmHg 82%
    04:00 -4°C° 0 mm 3 m/S 753 mmHg 81%
    05:00 -4°C° 0 mm 3 m/S 753 mmHg 79%
    06:00 -4°C° 0 mm 3 m/S 753 mmHg 78%
    07:00 -4°C° 0 mm 3 m/S 753 mmHg 76%
    08:00 -4°C° 0 mm 4 m/S 753 mmHg 70%
    09:00 -3°C° 0 mm 4 m/S 753 mmHg 64%
    10:00 -4°C° 0 mm 5 m/S 753 mmHg 58%
    11:00 -2°C° 0 mm 5 m/S 753 mmHg 54%
    12:00 -1°C° 0 mm 5 m/S 752 mmHg 50%
    13:00 0°C° 0 mm 5 m/S 752 mmHg 46%
    14:00 0°C° 0 mm 5 m/S 752 mmHg 47%
    15:00 0°C° 0 mm 5 m/S 751 mmHg 48%
    16:00 0°C° 0 mm 5 m/S 751 mmHg 49%
    17:00 -1°C° 0 mm 5 m/S 751 mmHg 53%
    18:00 -2°C° 0 mm 5 m/S 752 mmHg 58%
    19:00 -3°C° 0 mm 4 m/S 752 mmHg 63%
    20:00 -3°C° 0 mm 4 m/S 752 mmHg 64%
    21:00 -4°C° 0 mm 4 m/S 752 mmHg 65%
    22:00 -4°C° 0 mm 4 m/S 752 mmHg 67%
    23:00 -4°C° 0 mm 4 m/S 752 mmHg 67%

    23 Februar, Freitag

    Zeit Temperatur Niederschläge Wind Luftdruck Luftfeuchtigkeit
    00:00 -4°C° 0 mm 4 m/S 752 mmHg 67%
    01:00 -5°C° 0 mm 4 m/S 752 mmHg 68%
    02:00 -5°C° 0 mm 4 m/S 752 mmHg 68%
    03:00 -5°C° 0 mm 4 m/S 752 mmHg 68%
    04:00 -5°C° 0 mm 4 m/S 752 mmHg 68%
    05:00 -5°C° 0 mm 4 m/S 752 mmHg 69%
    06:00 -5°C° 0 mm 4 m/S 752 mmHg 70%
    07:00 -7°C° 0 mm 4 m/S 752 mmHg 72%
    08:00 -5°C° 0 mm 4 m/S 753 mmHg 68%
    09:00 -4°C° 0 mm 4 m/S 753 mmHg 64%
    10:00 -4°C° 0 mm 5 m/S 753 mmHg 60%
    11:00 -4°C° 0 mm 5 m/S 753 mmHg 57%
    12:00 -2°C° 0 mm 5 m/S 753 mmHg 55%
    13:00 -1°C° 0 mm 4 m/S 753 mmHg 52%
    14:00 -1°C° 0 mm 4 m/S 753 mmHg 52%
    15:00 -1°C° 0 mm 5 m/S 753 mmHg 52%
    16:00 -2°C° 0 mm 5 m/S 753 mmHg 52%
    17:00 -3°C° 0 mm 4 m/S 753 mmHg 54%
    18:00 -4°C° 0 mm 4 m/S 754 mmHg 56%
    19:00 -5°C° 0 mm 4 m/S 754 mmHg 58%
    20:00 -5°C° 0 mm 4 m/S 755 mmHg 55%
    21:00 -5°C° 0 mm 4 m/S 755 mmHg 53%
    22:00 -7°C° 0 mm 4 m/S 755 mmHg 51%
    23:00 -7°C° 0 mm 4 m/S 756 mmHg 52%
    Mehr zeigen